User: anonymous   Login
Location: Kunchanapalle
(16.4623°N, 80.6176°E)
Time: 11:13:17
(UTC+00:00)
Language:

Cosmos 1782 - Orbit

View from above orbital plane
View from above orbital plane
View from above satellite
View from above satellite

Ground track
Ground track

The orbit data is extracted from the following two-line orbital elements,

1 16986U 86074A   20299.90035207 +.00000023 +00000-0 -46724-6 0  9998
2 16986 082.5103 007.1114 0012833 110.2978 249.9630 15.07344510834424
Epoch (UTC): 25 October 2020 21:36:30
Eccentricity: 0.0012833
inclination: 82.5103°
perigee height: 535 km
apogee height: 553 km
right ascension of ascending node: 7.1114°
argument of perigee: 110.2978°
revolutions per day: 15.07344510
mean anomaly at epoch: 249.9630°
orbit number at epoch: 83442

The dashed part of the orbit path shows where the satellite is in the earth's shadow,  

DLR